Home   Weather   Jessheim   Past weeks

Flag for Norway Past Weather in Jessheim, Norway — Yesterday and Last 2 Weeks

Now
55 °F

Rain. Partly cloudy.


Feels Like: 53 °F
Forecast: 53 / 61 °F
Wind: 8 mph from East

Location: Oslo Gardermoen Airport

Current Time: Aug 18, 2017 at 5:12:40 am

Latest Report: Aug 18, 2017 at 4:20 am


Visibility: 4 mi

Pressure: 29.74 "Hg

Humidity: 94%

Dew Point: 54 °F

Location of JessheimLocation

Past Weather in Jessheim — Graph

°F

Jessheim Temperature Yesterday

Maximum temperature yesterday: 66 °F (at 2:50 pm)
Minimum temperature yesterday: 54 °F (at 12:50 am)
Average temperature yesterday: 59 °F

High & Low Weather Summary for the Past Weeks

 TemperatureHumidityPressure
High72 °F (Aug 11, 3:20 pm)100% (Aug 5, 6:20 am)30.15 "Hg (Aug 5, 6:20 am)
Low43 °F (Aug 14, 5:50 am)26% (Aug 13, 5:50 pm)29.36 "Hg (Aug 4, 1:20 pm)
Average58 °F74%29.83 "Hg
* Reported Aug 3 3:20 am — Aug 18 3:50 am, Jessheim. Weather by CustomWeather, © 2017

Note: Actual official high and low records may vary slightly from our data, if they occured in-between our weather recording intervals... More about our weather records

Advertising

Jessheim Weather History for the Previous 24 Hours

Scroll right to see more
 ConditionsComfort  
Time TempWeatherWind HumidityBarometerVisibility
3:50 am
Fri, Aug 18
55 °FRain. Passing clouds.9 mph94%29.74 "Hg4 mi
3:20 am55 °FRain. Passing clouds.7 mph94%29.77 "Hg5 mi
2:50 am55 °FRain. Passing clouds.7 mph94%29.77 "Hg5 mi
2:20 am55 °FRain. Partly cloudy.6 mph94%29.80 "Hg5 mi
1:50 am55 °FRain. Passing clouds.5 mph94%29.80 "Hg5 mi
1:20 am55 °FRain. Passing clouds.5 mph94%29.83 "HgN/A
12:50 am55 °FLight rain. Partly cloudy.2 mph88%29.83 "HgN/A
12:20 am55 °FLight rain. Partly cloudy.2 mph82%29.83 "HgN/A
11:50 pm
Thu, Aug 17
57 °FLight rain. Passing clouds.6 mph77%29.86 "HgN/A
11:20 pm57 °FLight rain. Passing clouds.5 mph72%29.86 "HgN/A
10:50 pm57 °FScattered showers. Passing clouds.3 mph72%29.86 "HgN/A
10:20 pm59 °FClear.6 mph68%29.89 "Hg10 mi
9:50 pm59 °FScattered showers. Clear.5 mph68%29.89 "HgN/A
9:20 pm61 °FLight rain. Clear.3 mph59%29.89 "HgN/A
8:50 pm61 °FPassing clouds.6 mph59%29.92 "HgN/A
8:20 pm61 °FSunny.6 mph55%29.92 "Hg10 mi
7:50 pm61 °FSunny.7 mph59%29.92 "Hg10 mi
7:20 pm61 °FSunny.12 mph55%29.92 "Hg10 mi
6:50 pm63 °FSunny.10 mph52%29.92 "Hg10 mi
6:20 pm63 °FSunny.12 mph52%29.95 "Hg10 mi
5:50 pm64 °FSunny.9 mph49%29.95 "Hg10 mi
5:20 pm64 °FPassing clouds.10 mph52%29.95 "HgN/A
4:50 pm64 °FPassing clouds.13 mph46%29.95 "HgN/A
4:20 pm64 °FPassing clouds.13 mph46%29.95 "HgN/A
3:20 pm64 °FSunny.12 mph46%29.98 "Hg10 mi
2:50 pm66 °FScattered clouds.13 mph43%29.98 "HgN/A
2:20 pm64 °FScattered clouds.13 mph52%29.98 "HgN/A
1:50 pm64 °FScattered clouds.14 mph56%29.98 "HgN/A
1:20 pm64 °FScattered clouds.12 mph49%30.01 "HgN/A
12:50 pm64 °FScattered clouds.12 mph52%30.01 "HgN/A
12:20 pm64 °FScattered clouds.13 mph49%30.01 "HgN/A
11:50 am63 °FScattered clouds.13 mph52%30.04 "HgN/A
11:20 am63 °FScattered clouds.14 mph56%30.04 "HgN/A
10:50 am61 °FScattered clouds.8 mph72%30.04 "HgN/A
10:20 am59 °FScattered clouds.9 mph72%30.04 "HgN/A
9:50 am59 °FPartly sunny.10 mph72%30.04 "HgN/A
9:20 am57 °FPartly sunny.9 mph82%30.04 "HgN/A
8:50 am55 °FPartly sunny.10 mph88%30.04 "HgN/A
8:20 am55 °FPartly sunny.7 mph88%30.04 "HgN/A
7:50 am55 °FPartly sunny.7 mph88%30.04 "HgN/A
7:20 am55 °FPartly sunny.7 mph88%30.04 "HgN/A
6:50 am55 °FMore clouds than sun.6 mph88%30.04 "HgN/A
6:20 am55 °FBroken clouds.5 mph88%30.04 "HgN/A
5:50 am54 °FMore clouds than sun.5 mph100%30.04 "HgN/A
5:20 am54 °FFog.1 mph94%30.04 "HgN/A
Weather by CustomWeather, © 2017

See weather overviewHow to use our weather pages